Station ORIN7 - 8652587 - Oregon Inlet Marina, NC Image indicating link to RSS feed of recent meteorological observations for station ORIN7


Conditions at ORIN7 as of
(2:18 am EDT)
0618 GMT on 05/23/2024:
     

Click on the graph icon in the table below to see a time series plot of the last five days of that observation.

5-day plot - Wind Direction Wind Direction (WDIR): SW ( 220 deg true )
5-day plot - Wind Speed Wind Speed (WSPD): 11.1 kts
5-day plot - Wind Gust Wind Gust (GST): 12.0 kts
5-day plot - Atmospheric Pressure Atmospheric Pressure (PRES):30.06 in
5-day plot - Air Temperature Air Temperature (ATMP): 71.4 °F
5-day plot - Water Temperature Water Temperature (WTMP): 69.3 °F
5-day plot - Wind Speed at 10 Meters Wind Speed at 10 meters (WSPD10M): 11.7 kts
5-day plot - Wind Speed at 20 Meters Wind Speed at 20 meters (WSPD20M): 11.7 kts
5-day plot -  Wind Speed, Wind Gust and Atmospheric Pressure Combined plot of Wind Speed, Gust, and Air Pressure
NOS Water Level Observation Network Water Level
Previous observations
TIME
(EDT)
5-day plot - Wind Direction
WDIR
 
5-day plot - Wind Speed
WSPD
kts
5-day plot - Wind Gust
GST
kts
5-day plot - Wave Height
WVHT
ft
5-day plot - Dominant Wave Period
DPD
sec
5-day plot - Average Wave Period
APD
sec
5-day plot - Mean Wave Direction
MWD
 
5-day plot - Atmospheric Pressure
PRES
in
5-day plot - Pressure Tendency
PTDY
in
5-day plot - Air Temperature
ATMP
°F
5-day plot - Water Temperature
WTMP
°F
5-day plot - Dew Point
DEWP
°F
5-day plot - Salinity
SAL
psu
5-day plot - Visibility
VIS
nmi
5-day plot - Tide (above MLLW)
TIDE
ft
2024-05-23 02:12 am SW 11.1 13.0----30.06- 71.4 69.3----
2024-05-23 02:06 am SW 12.0 14.0----30.06- 71.6 69.4----
2024-05-23 02:00 am SW 12.0 14.0----30.06+0.00- 69.3----
2024-05-23 01:54 am SW 12.0 14.0----30.06-- 69.4----
2024-05-23 01:48 am SW 12.0 14.0----30.06- 71.6 69.4----
2024-05-23 01:42 am SW 12.0 14.0----30.06- 71.4 69.4----
2024-05-23 01:36 amSSW 11.1 13.0----30.05- 71.6 69.6----
2024-05-23 01:30 amSSW 12.0 14.0----30.05- 71.4 69.6----
2024-05-23 01:24 amSSW 12.0 14.0----30.05- 71.4 69.8----
2024-05-23 01:18 amSSW 12.0 14.0----30.06- 71.4 70.0----
2024-05-23 01:12 amSSW 12.0 14.0----30.06- 71.4 70.2----
2024-05-23 01:06 amSSW 13.0 15.0----30.06- 71.4 70.5----
2024-05-23 01:00 amSSW 12.0 14.0----30.05-0.01 71.2 70.7----
2024-05-23 12:54 amSSW 11.1 13.0----30.06- 71.2 71.2----
2024-05-23 12:48 amSSW 12.0 13.0----30.06- 71.1 71.8----
2024-05-23 12:42 amSSW 11.1 13.0----30.06- 71.1 72.1----
2024-05-23 12:36 amSSW 11.1 12.0----30.06- 71.1 71.8----
2024-05-23 12:30 amSSW 11.1 13.0----30.07- 71.1 72.1----
2024-05-23 12:24 amSSW 9.9 12.0----30.06- 70.9 72.7----
2024-05-23 12:18 amSSW 9.9 11.1----30.06- 70.7 73.2----
2024-05-23 12:12 amSSW 9.9 11.1----30.06- 70.7 73.0----
2024-05-23 12:06 amSSW 8.9 11.1----30.06- 70.7 73.4----
2024-05-23 12:00 amSSW 9.9 11.1----30.06+0.02 70.7 73.6----
2024-05-22 11:54 pmSSW 9.9 11.1----30.06- 70.7 74.1----
2024-05-22 11:48 pmSSW 9.9 12.0----30.06- 70.3 74.1----
2024-05-22 11:42 pmSSW 9.9 11.1----30.05- 70.2 74.3----
2024-05-22 11:36 pmSSW 8.9 11.1----30.05- 70.2 74.5----
2024-05-22 11:30 pmSSW 8.9 11.1----30.05- 70.2 74.7----
2024-05-22 11:24 pmSSW 8.9 11.1----30.05- 70.5 74.7----
2024-05-22 11:18 pmSSW 9.9 12.0----30.05- 70.7 74.8----
2024-05-22 11:12 pmSSW 11.1 12.0----30.05- 70.5 74.8----
2024-05-22 11:06 pmSSW 11.1 13.0----30.06- 70.7 75.0----
2024-05-22 11:00 pmSSW 12.0 13.0----30.06+0.03 70.7 74.8----
2024-05-22 10:54 pmSSW 12.0 13.0----30.06- 70.7 75.4----
2024-05-22 10:48 pmSSW 11.1 12.0----30.06- 70.5 75.4----
2024-05-22 10:42 pmSSW 11.1 12.0----30.06- 70.3 75.7----
2024-05-22 10:36 pmSSW 11.1 13.0----30.06- 70.3 75.9----
2024-05-22 10:30 pmSSW 12.0 13.0----30.06- 70.3 75.9----
2024-05-22 10:24 pmSSW 11.1 14.0----30.07- 70.3 75.9----
2024-05-22 10:18 pmSSW 11.1 13.0----30.07- 70.5 75.9----
2024-05-22 10:12 pmSSW 11.1 12.0----30.07- 70.3 75.9----
2024-05-22 10:06 pmSSW 9.9 11.1----30.07- 70.2 76.1----
2024-05-22 10:00 pmSSW 9.9 11.1----30.06+0.03 70.0 76.3----
2024-05-22 09:54 pmSSW 8.9 9.9----30.06- 69.8 76.1----
2024-05-22 09:48 pmSSW 8.9 11.1----30.06- 69.8 76.1----
2024-05-22 09:42 pmSSW 8.9 11.1----30.05- 69.6 76.1----
2024-05-22 09:36 pmSSW 8.9 9.9----30.05- 69.6 76.1----
2024-05-22 09:30 pmSSW 8.9 11.1----30.05- 69.8 76.1----
2024-05-22 09:24 pmSSW 8.9 9.9----30.04- 69.6 76.3----
2024-05-22 09:18 pmSSW 8.9 11.1----30.04- 69.8 76.3----
2024-05-22 09:12 pm S 8.9 11.1----30.04- 69.8 76.3----
2024-05-22 09:06 pm S 8.9 11.1----30.03- 69.8 76.3----
2024-05-22 09:00 pm S 8.9 9.9----30.04+0.01 70.0 76.3----
2024-05-22 08:54 pm S 8.9 11.1----30.04- 70.2 76.3----
2024-05-22 08:48 pmSSW 8.9 11.1----30.04- 70.2 76.1----
2024-05-22 08:42 pmSSW 8.0 11.1----30.04- 70.2 76.1----
2024-05-22 08:36 pm S 8.9 9.9----30.04- 70.2 76.1----
2024-05-22 08:30 pm S 8.0 9.9----30.03- 70.5 76.1----
2024-05-22 08:24 pm S 8.0 9.9----30.03- 70.5 75.9----
2024-05-22 08:18 pm S 8.9 11.1----30.03- 70.7 75.9----
2024-05-22 08:12 pm S 8.9 11.1----30.03- 70.9 75.9----
2024-05-22 08:06 pm S 8.0 11.1----30.03- 71.1 75.9----
2024-05-22 08:00 pm S 8.9 11.1----30.03+0.00 71.2 75.7----
2024-05-22 07:54 pm S 9.9 11.1----30.03- 71.6 75.7----
2024-05-22 07:48 pmSSW 9.9 11.1----30.04- 72.0 75.7----
2024-05-22 07:42 pmSSW 9.9 12.0----30.04- 72.1 75.6----
2024-05-22 07:36 pmSSW 9.9 12.0----30.04- 72.5 75.6----
2024-05-22 07:30 pmSSW 9.9 12.0----30.03- 72.7 75.6----
2024-05-22 07:24 pmSSW 11.1 13.0----30.03- 72.5 75.6----
2024-05-22 07:18 pmSSW 9.9 13.0----30.03- 72.7 75.4----
2024-05-22 07:12 pmSSW 11.1 13.0----30.03- 72.7 75.4----
2024-05-22 07:06 pmSSW 11.1 14.0----30.03- 72.9 75.4----
2024-05-22 07:00 pmSSW 9.9 14.0----30.03-0.01 73.0 75.4----
2024-05-22 06:54 pmSSW 11.1 13.0----30.03- 73.0 75.4----
2024-05-22 06:48 pmSSW 11.1 13.0----30.03-- 75.2----
2024-05-22 06:42 pmSSW 8.9 11.1----30.03-- 75.2----
2024-05-22 06:36 pm S 8.9 11.1----30.03-- 75.2----
2024-05-22 06:30 pm S 8.9 12.0----30.03- 73.0 75.0----
2024-05-22 06:24 pm S 8.9 11.1----30.03- 73.0 75.0----
2024-05-22 06:18 pm S 8.9 12.0----30.03- 73.2 75.0----
2024-05-22 06:12 pm S 9.9 12.0----30.03- 73.0 74.8----
2024-05-22 06:06 pmSSW 9.9 12.0----30.03- 73.0 74.8----
2024-05-22 06:00 pm-------30.03-0.04 73.4 74.8----
2024-05-22 05:54 pm-------30.03- 73.2 74.7----
2024-05-22 05:48 pm S 9.9 14.0----30.03-- 74.7----
2024-05-22 05:42 pm S 12.0 14.0----30.03-- 74.7----
2024-05-22 05:36 pm S 11.1 14.0----30.03-- 74.5----
2024-05-22 05:30 pm S 11.1 13.0----30.03- 73.6 74.5----
2024-05-22 05:24 pm S 11.1 13.0----30.03- 73.8 74.5----
2024-05-22 05:18 pm S 11.1 13.0----30.03- 73.8 74.5----
2024-05-22 05:12 pm S 11.1 13.0----30.03- 73.6 74.3----
2024-05-22 05:06 pm S 11.1 13.0----30.03- 73.4 74.3----
2024-05-22 05:00 pm S 11.1 14.0----30.04- 73.8 74.1----
2024-05-22 04:54 pm S 11.1 14.0----30.04- 73.4 74.1----
2024-05-22 04:48 pm S 12.0 15.0----30.04- 73.8 74.1----
2024-05-22 04:42 pm S 12.0 14.0----30.04- 73.4 74.1----
2024-05-22 04:36 pm S 12.0 15.0----30.04- 73.2 73.9----
2024-05-22 04:30 pm S 11.1 14.0----30.04- 73.4 73.9----
2024-05-22 04:24 pm S 12.0 14.0----30.04- 73.2 73.8----
2024-05-22 04:18 pm S 12.0 14.0----30.04- 73.8 73.8----
2024-05-22 04:12 pm S 11.1 14.0----30.04- 73.9 73.8----
2024-05-22 04:06 pm S 12.0 14.0----30.05- 73.0 73.6----
2024-05-22 04:00 pm S 11.1 15.0----30.04-0.05 73.8 73.4----
2024-05-22 03:54 pm S 12.0 15.0----30.04- 73.4 73.2----
2024-05-22 03:48 pm S 9.9 14.0----30.05- 74.1 73.0----
2024-05-22 03:42 pm S 9.9 13.0----30.05- 73.8 72.9----
2024-05-22 03:36 pm S 9.9 15.0----30.06- 73.6 73.0----
2024-05-22 03:30 pm S 12.0 15.0----30.06- 73.4 72.9----
2024-05-22 03:24 pm S 12.0 14.0----30.06- 73.6 72.7----
2024-05-22 03:18 pm S 11.1 14.0----30.06- 73.6 72.5----
2024-05-22 03:12 pm S 11.1 14.0----30.07- 73.2 72.3----
2024-05-22 03:06 pm S 12.0 14.0----30.07- 73.2 72.3----
2024-05-22 03:00 pm S 12.0 14.0----30.07-0.03 73.6 72.0----
2024-05-22 02:54 pm S 11.1 15.0----30.07- 74.1 71.8----
2024-05-22 02:48 pm S 8.9 14.0----30.07- 74.3 71.8----
2024-05-22 02:42 pm S 12.0 14.0----30.07- 73.8 71.6----
2024-05-22 02:36 pm S 11.1 14.0----30.07- 73.8 71.1----
2024-05-22 02:30 pm S 11.1 14.0----30.07- 73.8 70.9----
2024-05-22 02:24 pm S 12.0 14.0----30.07- 73.0 70.7----
2024-05-22 02:18 pm S 8.9 14.0------- 70.5----
2024-05-22 02:12 pm S 9.9 13.0------- 70.3----
2024-05-22 02:06 pm S 8.0 9.9------- 70.2----
2024-05-22 02:00 pmSSW 8.0 8.9------- 70.0----
2024-05-22 01:54 pm S 7.0 9.9------- 69.8----
2024-05-22 01:48 pm S 8.9 9.9------- 69.6----
2024-05-22 01:42 pmSSW 7.0 8.9------- 69.6----
2024-05-22 01:36 pmSSW 6.0 7.0------- 69.4----
2024-05-22 01:30 pmSSW 6.0 6.0----30.08-------
2024-05-22 01:24 pmSSW 5.1 6.0----30.08-------
2024-05-22 01:18 pmSSW 5.1 5.1------- 69.1----
2024-05-22 01:12 pmSSW 5.1 6.0------- 69.1----
2024-05-22 01:06 pmSSW 6.0 6.0------- 68.9----
2024-05-22 01:00 pmSSW 6.0 7.0----30.09-0.02- 68.9----
2024-05-22 12:54 pmSSW 6.0 7.0----30.09-- 68.7----
2024-05-22 12:48 pmSSW 5.1 6.0------- 68.7----
2024-05-22 12:42 pmSSW 5.1 6.0------- 68.5----
2024-05-22 12:36 pmSSW 5.1 6.0------- 68.5----
2024-05-22 12:30 pmSSW 6.0 7.0------------
2024-05-22 12:24 pmSSW 6.0 7.0------------
2024-05-22 12:18 pmSSW 6.0 7.0------ 71.4 68.4----
2024-05-22 12:12 pmSSW 6.0 7.0------ 71.1 68.2----
2024-05-22 12:06 pmSSW 6.0 6.0------ 71.1 68.2----
2024-05-22 12:00 pmSSW 6.0 7.0----30.10-0.02 70.9 68.0----
2024-05-22 11:54 amSSW 6.0 6.0----30.10- 71.2 68.0----
2024-05-22 11:48 amSSW 6.0 7.0----30.10- 71.4 68.0----
2024-05-22 11:42 amSSW 5.1 6.0----30.10- 71.2 67.8----
2024-05-22 11:36 amSSW 5.1 6.0----30.10- 71.4 67.8----
2024-05-22 11:30 amSSW 5.1 5.1----30.11- 70.9 67.8----
2024-05-22 11:24 amSSW 4.1 4.1----30.11- 70.0 67.8----
2024-05-22 11:18 am SW 4.1 4.1----30.11- 69.1 67.6----
2024-05-22 11:12 am SW 4.1 4.1----30.11- 69.3 67.6----
2024-05-22 11:06 am SW 2.9 4.1----30.11- 69.4 67.6----
2024-05-22 11:00 amSSW 2.9 4.1----30.11+0.01 69.3 67.6----
2024-05-22 10:54 amSSW 4.1 5.1----30.12- 68.9 67.5----
2024-05-22 10:48 amSSW 4.1 4.1----30.11-- 67.5----
2024-05-22 10:42 am SW 4.1 4.1----30.11-- 67.5----
2024-05-22 10:36 am SW 2.9 4.1----30.11-- 67.5----
2024-05-22 10:30 amSSW 2.9 4.1------------
2024-05-22 10:24 amSSW 2.9 2.9------------
2024-05-22 10:18 am SW 1.9 2.9------------
2024-05-22 10:12 am SW 2.9 4.1------------
2024-05-22 10:06 amWSW 2.9 4.1------------
2024-05-22 10:00 amWSW 4.1 4.1----30.11+0.02 68.2 67.1----
2024-05-22 09:54 amWSW 2.9 2.9----30.11- 68.2 67.1----
2024-05-22 09:48 amWSW 2.9 2.9----30.11-- 67.1----
2024-05-22 09:42 amWSW 2.9 2.9----30.12-- 67.1----
2024-05-22 09:36 amWSW 2.9 4.1----30.12-- 66.9----
2024-05-22 09:30 amWSW 4.1 4.1------------
2024-05-22 09:24 amWSW 4.1 4.1------------
2024-05-22 09:18 amWSW 2.9 4.1----30.12-- 66.9----
2024-05-22 09:12 amWSW 2.9 5.1----30.12-- 66.7----
2024-05-22 09:06 am W 4.1 5.1----30.12-- 66.7----
2024-05-22 09:00 am W 4.1 5.1----30.12+0.05 68.4 66.7----
2024-05-22 08:54 am W 2.9 5.1----30.12- 68.4 66.7----
2024-05-22 08:48 am W 4.1 4.1----30.12- 67.6 66.7----
2024-05-22 08:42 am W 2.9 4.1----30.12- 67.5 66.7----
2024-05-22 08:36 amWSW 2.9 4.1----30.12- 67.5 66.7----
2024-05-22 08:30 amWSW 1.9 2.9----30.11- 67.3 66.6----
2024-05-22 08:24 amWSW 2.9 2.9----30.11- 67.1 66.6----
2024-05-22 08:18 amWSW 1.9 1.9----30.11- 67.3 66.6----
2024-05-22 08:12 amWSW 1.9 1.9----30.11- 67.8 66.6----
2024-05-22 08:06 am- 0.0 1.0----30.11- 68.2 66.6----
2024-05-22 08:00 am- 0.0 0.0----30.10+0.04 68.5 66.6----
2024-05-22 07:54 am- 0.0 1.0----30.10- 67.8 66.6----
2024-05-22 07:48 am- 0.0 1.9----30.10- 68.2 66.4----
2024-05-22 07:42 amWSW 1.0 1.9----30.09- 67.6 66.4----
2024-05-22 07:36 amWSW 1.9 1.9----30.10- 67.6 66.4----
2024-05-22 07:30 am W 1.9 2.9----30.10- 68.2 66.4----
2024-05-22 07:24 am W 1.9 1.9----30.10- 67.6 66.4----
2024-05-22 07:18 am W 1.0 1.9----30.10- 67.5 66.4----
2024-05-22 07:12 am W 1.9 2.9----30.09- 67.1 66.4----
2024-05-22 07:06 am W 1.9 2.9----30.09- 66.9 66.4----
2024-05-22 07:00 am W 1.9 1.9----30.09+0.04 66.6 66.4----
2024-05-22 06:54 am W 1.0 1.9----30.09- 66.2 66.4----
2024-05-22 06:48 am W 1.0 2.9----30.09- 65.8 66.4----
2024-05-22 06:42 am W 1.9 2.9----30.09- 65.5 66.4----
2024-05-22 06:36 am W 1.9 2.9----30.09- 65.5 66.4----
2024-05-22 06:30 am W 1.9 2.9----30.08- 65.1 66.4----
2024-05-22 06:24 am W 1.9 1.9----30.08- 64.8 66.4----
2024-05-22 06:18 am W 1.0 1.9----30.08- 64.2 66.4----
2024-05-22 06:12 am W 1.0 1.0----30.08- 63.9 66.4----
2024-05-22 06:06 am W 1.0 1.9----30.08- 63.5 66.4----
2024-05-22 06:00 am W 1.0 1.9----30.08+0.02 63.5 66.4----
2024-05-22 05:54 am W 1.9 2.9----30.07- 63.3 66.4----
2024-05-22 05:48 am- 0.0 0.0----30.07- 63.1 66.4----
2024-05-22 05:42 am- 0.0 0.0----30.07- 62.8 66.4----
2024-05-22 05:36 am- 0.0 0.0----30.07- 62.6 66.4----
2024-05-22 05:30 am- 0.0 0.0----30.06- 62.4 66.4----
2024-05-22 05:24 am- 0.0 1.0----30.06- 62.6 66.4----
2024-05-22 05:18 am S 1.9 1.9----30.06- 62.6 66.4----
2024-05-22 05:12 am- 0.0 1.0----30.06- 62.6 66.4----
2024-05-22 05:06 am S 1.0 1.9----30.06- 62.4 66.6----
2024-05-22 05:00 amSSE 1.9 2.9----30.06+0.00 62.2 66.6----
2024-05-22 04:54 am- 0.0 1.9----30.06- 62.2 66.6----
2024-05-22 04:48 am SE 1.9 2.9----30.05- 61.9 66.6----
2024-05-22 04:42 am SE 2.9 4.1----30.05- 61.9 66.6----
2024-05-22 04:36 am SE 4.1 5.1----30.05- 61.9 66.6----
2024-05-22 04:30 am SE 2.9 4.1----30.05- 61.9 66.6----
2024-05-22 04:24 am SE 2.9 4.1----30.05- 61.9 66.6----
2024-05-22 04:18 am SE 2.9 5.1----30.05- 61.7 66.6----
2024-05-22 04:12 am SE 4.1 5.1----30.05- 61.5 66.6----
2024-05-22 04:06 am SE 4.1 5.1----30.05- 61.7 66.6----
2024-05-22 04:00 amESE 4.1 5.1----30.05-0.01 61.7 66.6----
2024-05-22 03:54 am SE 4.1 4.1----30.05- 61.5 66.6----
2024-05-22 03:48 amESE 4.1 4.1----30.05- 61.5 66.6----
2024-05-22 03:42 am SE 2.9 4.1----30.05- 61.5 66.6----
2024-05-22 03:36 amESE 2.9 5.1----30.05- 61.5 66.6----
2024-05-22 03:30 amESE 5.1 6.0----30.05- 61.3 66.6----
2024-05-22 03:24 am SE 2.9 5.1----30.05- 61.5 66.6----
2024-05-22 03:18 am SE 4.1 6.0----30.06- 61.5 66.6----
2024-05-22 03:12 am SE 5.1 6.0----30.06- 61.3 66.6----
2024-05-22 03:06 am SE 5.1 6.0----30.06- 61.3 66.7----
2024-05-22 03:00 amESE 2.9 4.1----30.06+0.00 61.5 66.7----
2024-05-22 02:54 amESE 4.1 4.1----30.05- 61.5 66.7----
2024-05-22 02:48 amESE 4.1 5.1----30.05- 61.5 66.7----
2024-05-22 02:42 amESE 2.9 5.1----30.06- 61.5 66.7----
2024-05-22 02:36 amESE 4.1 5.1----30.05- 61.5 66.7----
2024-05-22 02:30 amESE 5.1 5.1----30.06- 61.5 66.7----
2024-05-22 02:24 amESE 4.1 5.1----30.06- 61.5 66.7----
2024-05-22 02:18 amESE 4.1 5.1----30.06- 61.5 66.7----
2024-05-22 02:12 amESE 5.1 6.0----30.06- 61.5 66.9----
2024-05-22 02:06 amESE 4.1 5.1----30.06- 61.5 66.9----
2024-05-22 02:00 amESE 5.1 6.0----30.06+0.00 61.5 66.9----
2024-05-22 01:54 amESE 5.1 6.0----30.06- 61.5 66.9----